Location: Aiyekoto
(8.4333°N, 4.3667°E)
Time: 00:38:53
(UTC+00:00)

Centaur D-1A AC-31 - Pass Details

Date: 07 June 2020
Orbit: 629 x 36312 km, 27.3° (Epoch: 13 July)

Event Time Altitude Azimuth Distance (km) Brightness Sun altitude
Rises 04:28:27 0° 294° (WNW) 11,597 7.1 -13.2°
Reaches altitude 10° 04:41:58 10° 303° (WNW) 6,565 5.9 -10.2°
Maximum altitude 04:53:54 33° 4° (N) 1,842 3.8 -7.5°
Drops below altitude 10° 04:57:58 10° 72° (ENE) 2,230 5.7 -6.6°
Sets 04:59:47 0° 84° (E) 2,948 6.2 -6.2°
